[[{"header":{"parameterUnit":"m.s-1","parameterCategory":1,"la1":30.2991,"la2":30.254,"lo1":-89.0895,"lo2":-89.0444,"dy":0.0017,"dx":0.0017,"nx":28,"ny":28,"refTime":"2024-08-26T03:00:00:Z","depth":0,"parameterNumber":2,"parameterNumberName":"U-component_of_WINDS"},"data":[0,0,0,0,0,0,0,0,0,0,0,0,0,0,0,0,0,0,0,0,0,0,0,0,0,0,0,0,0,0,0,0,0,0,0,0,0,0,0,0,0,0,0,0,0,0,0,0,0,0,0,0,0,0,0,0,0,0,-2.3692,-2.3692,0,-2.3676,-2.3676,-2.3675,-2.3606,-2.3604,-2.3603,-2.3601,-2.3586,-2.3587,-2.3588,0,0,0,0,0,0,0,0,0,0,0,0,0,-2.3667,-2.3668,-2.3692,-2.3692,-2.3692,-2.3676,-2.3676,-2.3675,-2.3606,-2.3604,-2.3602,-2.36,-2.3586,-2.3587,-2.3588,0,0,0,0,0,0,0,0,0,0,0,0,0,-2.3667,-2.3668,-2.3692,-2.3655,-2.3652,-2.3676,-2.3676,-2.3675,-2.3607,-2.3604,-2.3602,-2.3599,-2.3585,-2.3587,-2.3589,-2.3648,0,0,-2.3594,-2.3594,0,0,0,0,0,0,0,0,-2.3667,-2.3668,-2.3661,-2.3658,-2.3654,-2.364,-2.3661,-2.3666,-2.3607,-2.3624,-2.3601,-2.3598,-2.3606,-2.3606,-2.3608,-2.3647,-2.3646,-2.3594,-2.3595,-2.3596,-2.3596,0,0,0,0,0,0,0,-2.3667,-2.3668,-2.3686,-2.3661,-2.3657,-2.3641,-2.3638,-2.3662,-2.3629,-2.3622,-2.3617,-2.3616,-2.3604,-2.3607,-2.3607,-2.3646,-2.3594,-2.3595,-2.3596,-2.3597,-2.3736,-2.3739,0,0,0,0,0,0,-2.3672,-2.3669,-2.3686,-2.3685,-2.3655,-2.3643,-2.364,-2.3647,-2.3628,-2.3623,-2.3618,-2.3613,-2.3605,-2.3606,-2.3607,-2.3678,-2.3596,-2.3597,-2.3598,-2.3734,-2.3737,-2.374,0,0,0,0,0,0,-2.3672,-2.3674,-2.3687,-2.3676,-2.3676,-2.3646,-2.3655,-2.3648,-2.3651,-2.3625,-2.3619,-2.3627,-2.3603,-2.3604,-2.3639,-2.3676,-2.3598,-2.3599,-2.3731,-2.3735,-2.3738,-2.3818,0,0,0,0,0,0,-2.3671,-2.3675,-2.3696,-2.3677,-2.3677,-2.3718,-2.3657,-2.365,-2.3654,-2.3647,-2.3632,-2.3627,-2.3602,-2.3637,-2.364,-2.3677,-2.3601,-2.3727,-2.3732,-2.3737,-2.3812,-2.3824,-2.3835,0,0,0,0,0,-2.3671,-2.3718,-2.3697,-2.3699,-2.3702,-2.372,-2.3721,-2.3689,-2.3657,-2.3679,-2.3663,-2.3628,-2.3671,-2.3641,-2.3644,-2.3682,-2.3725,-2.3731,-2.3737,-2.3807,-2.3822,-2.3835,0,0,0,0,0,0,-2.3742,-2.3715,-2.3691,-2.3733,-2.373,-2.3709,-2.3735,-2.3706,-2.3711,-2.3705,-2.3666,-2.3664,-2.3705,-2.3696,-2.3663,-2.374,-2.3692,-2.3699,-2.3744,-2.3758,-2.3769,-2.3772,-2.3602,0,0,0,0,0,-2.3763,-2.3779,-2.3754,-2.3794,-2.3794,-2.3765,-2.3772,-2.3748,-2.3743,-2.3741,-2.3727,-2.3725,-2.3738,-2.3747,-2.3757,-2.381,-2.3808,-2.3838,-2.3849,-2.3859,-2.3866,-2.3897,-2.3911,-2.376,-2.376,-2.376,0,0,-2.3806,-2.3793,-2.3805,-2.3808,-2.3803,-2.3822,-2.3764,-2.3786,-2.38,-2.3744,-2.3777,-2.3767,-2.3761,-2.3806,-2.3825,-2.3801,-2.3907,-2.3867,-2.3874,-2.3876,-2.3905,-2.3919,-2.3932,-2.3764,-2.3763,-2.3763,0,0,-2.3894,-2.3885,-2.3919,-2.3915,-2.3907,-2.3888,-2.3897,-2.388,-2.3872,-2.3904,-2.3863,-2.3881,-2.3903,-2.3902,-2.3904,-2.3996,-2.3965,-2.4,-2.4061,-2.4091,-2.4103,-2.4114,-2.415,-2.4163,-2.4007,-2.4007,-2.4007,0,-2.3949,-2.3975,-2.394,-2.3965,-2.397,-2.392,-2.3956,-2.3954,-2.395,-2.3955,-2.3927,-2.3957,-2.3949,-2.3995,-2.4018,-2.402,-2.4031,-2.4002,-2.4104,-2.4114,-2.4124,-2.4158,-2.4171,-2.4012,-2.4011,-2.4011,-2.401,0,-2.4044,-2.4063,-2.4092,-2.4091,-2.4097,-2.4128,-2.4099,-2.4111,-2.4088,-2.4072,-2.4108,-2.4097,-2.4106,-2.4115,-2.4091,-2.4159,-2.4144,-2.4111,-2.4062,-2.4143,-2.4175,-2.4187,-2.4018,-2.4017,-2.4015,-2.4014,0,0,-2.4176,-2.4157,-2.4169,-2.4169,-2.4158,-2.4173,-2.4203,-2.4212,-2.4224,-2.4224,-2.425,-2.4271,-2.4242,-2.4244,-2.4221,-2.4248,-2.4325,-2.4211,-2.4211,-2.4236,-2.4403,-2.443,-2.4445,-2.4304,-2.4306,-2.4308,-2.4404,0,-2.4263,-2.4312,-2.4283,-2.4337,-2.4356,-2.4311,-2.4337,-2.4334,-2.4321,-2.4337,-2.4323,-2.434,-2.4298,-2.43,-2.4324,-2.4311,-2.4359,-2.4303,-2.433,-2.4332,-2.4336,-2.4461,-2.4488,-2.4579,-2.4416,-2.4418,-2.4419,0,-2.4371,-2.4377,-2.4433,-2.4422,-2.4429,-2.4453,-2.4461,-2.4475,-2.4472,-2.4461,-2.4466,-2.4437,-2.4468,-2.4419,-2.4462,-2.4425,-2.4434,-2.443,-2.4433,-2.4436,-2.4382,-2.447,-2.4607,-2.4622,-2.4438,-2.4436,-2.4435,0,-2.4466,-2.4487,-2.4525,-2.4526,-2.4513,-2.4532,-2.4527,-2.4522,-2.4531,-2.4538,-2.4544,-2.4554,-2.4561,-2.457,-2.4546,-2.4512,-2.4594,-2.4542,-2.4588,-2.4589,-2.4609,-2.4608,-2.4752,-2.4611,-2.461,-2.461,-2.461,0,-2.4567,-2.4604,-2.4568,-2.4591,-2.4632,-2.4599,-2.4641,-2.4632,-2.4628,-2.4651,-2.4611,-2.4633,-2.4598,-2.4618,-2.4599,-2.464,-2.4642,-2.4636,-2.4631,-2.4641,-2.4642,-2.4648,-2.4642,-2.4614,-2.4613,-2.4612,-2.4612,0,-2.4681,-2.4657,-2.4696,-2.4681,-2.4678,-2.471,-2.4698,-2.472,-2.4705,-2.4734,-2.4739,-2.4716,-2.4737,-2.4713,-2.4732,-2.4719,-2.4776,-2.476,-2.4777,-2.4773,-2.4822,-2.4819,-2.4977,-2.4997,-2.484,-2.4842,-2.4843,0,-2.4748,-2.4776,-2.4765,-2.4777,-2.4775,-2.4795,-2.4804,-2.4773,-2.4784,-2.4785,-2.4808,-2.4826,-2.4838,-2.4874,-2.486,-2.4876,-2.4862,-2.4916,-2.4864,-2.4874,-2.4866,-2.4866,-2.487,-2.4927,-2.4929,-2.4931,-2.4932,0,-2.4872,-2.486,-2.4874,-2.4885,-2.4897,-2.4904,-2.4909,-2.4921,-2.489,-2.4905,-2.4926,-2.4936,-2.4956,-2.4975,-2.4987,-2.4984,-2.4954,-2.4948,-2.4961,-2.4972,-2.4982,-2.4981,-2.4809,-2.4945,-2.4944,-2.4943,-2.4942,-2.4942,-2.4966,-2.499,-2.4987,-2.5005,-2.5006,-2.5012,-2.5033,-2.5021,-2.5038,-2.5052,-2.5033,-2.506,-2.506,-2.5072,-2.5073,-2.5096,-2.5073,-2.5089,-2.5094,-2.5099,-2.5108,-2.4977,-2.5097,-2.5097,-2.5096,-2.5096,-2.5096,0,-2.5091,-2.5087,-2.5104,-2.5112,-2.5127,-2.5097,-2.5101,-2.5116,-2.5141,-2.5143,-2.5156,-2.5183,-2.5202,-2.519,-2.5207,-2.5228,-2.5215,-2.5233,-2.5233,-2.5234,-2.5126,-2.5115,-2.5244,-2.5244,-2.5244,-2.5244,-2.5244,-2.5244,-2.5157,-2.5197,-2.5185,-2.5226,-2.5222,-2.5248,-2.5254,-2.526,-2.5262,-2.5293,-2.5309,-2.5301,-2.5299,-2.5316,-2.5333,-2.5329,-2.5339,-2.5363,-2.5355,-2.5255,-2.5241,-2.5227,-2.5217,-2.5365,-2.5365,-2.5461,-2.5462,-2.5463]},{"header":{"parameterUnit":"m.s-1","parameterCategory":1,"la1":30.2991,"la2":30.254,"lo1":-89.0895,"lo2":-89.0444,"dy":0.0017,"dx":0.0017,"nx":28,"ny":28,"refTime":"2024-08-26T03:00:00:Z","depth":0,"parameterNumber":3,"parameterNumberName":"V-component_of_WINDS"},"data":[0,0,0,0,0,0,0,0,0,0,0,0,0,0,0,0,0,0,0,0,0,0,0,0,0,0,0,0,0,0,0,0,0,0,0,0,0,0,0,0,0,0,0,0,0,0,0,0,0,0,0,0,0,0,0,0,0,0,2.351,2.3509,0,2.3484,2.3484,2.3483,2.3463,2.3462,2.3462,2.3462,2.3434,2.3433,2.3433,0,0,0,0,0,0,0,0,0,0,0,0,0,2.3537,2.3537,2.351,2.3509,2.3509,2.3484,2.3484,2.3483,2.3463,2.3462,2.3462,2.3462,2.3434,2.3433,2.3433,0,0,0,0,0,0,0,0,0,0,0,0,0,2.352,2.3537,2.351,2.3496,2.3494,2.3484,2.3484,2.3483,2.3463,2.3462,2.3462,2.3462,2.3434,2.3434,2.3433,2.3434,0,0,2.343,2.343,0,0,0,0,0,0,0,0,2.3521,2.3519,2.3498,2.3497,2.3495,2.3476,2.3483,2.3467,2.3463,2.3475,2.3462,2.3462,2.3448,2.3446,2.3442,2.3433,2.3432,2.343,2.343,2.3429,2.3429,0,0,0,0,0,0,0,2.3522,2.352,2.3499,2.3498,2.3496,2.349,2.3487,2.348,2.3463,2.3473,2.3472,2.3469,2.3447,2.3443,2.3441,2.3431,2.343,2.3429,2.3429,2.3429,2.3419,2.3419,0,0,0,0,0,0,2.3526,2.3521,2.35,2.3499,2.3507,2.3489,2.3486,2.3482,2.3463,2.346,2.347,2.3468,2.3444,2.3442,2.344,2.3439,2.3429,2.3429,2.3428,2.3419,2.3419,2.342,0,0,0,0,0,0,2.3527,2.3524,2.3501,2.3509,2.3506,2.3489,2.3485,2.3482,2.3478,2.3461,2.3457,2.3468,2.3444,2.3441,2.3435,2.3438,2.3428,2.3427,2.3419,2.3419,2.3419,2.3438,0,0,0,0,0,0,2.3527,2.3525,2.3526,2.351,2.3506,2.3498,2.3485,2.3482,2.3477,2.3475,2.3459,2.3455,2.3444,2.3437,2.3435,2.3436,2.3427,2.3418,2.3419,2.3419,2.3437,2.3439,2.344,0,0,0,0,0,2.3528,2.3532,2.3526,2.3524,2.3507,2.3498,2.3496,2.3483,2.3477,2.3477,2.3466,2.3456,2.3438,2.3436,2.3434,2.3435,2.3418,2.3419,2.3419,2.3436,2.3438,2.344,0,0,0,0,0,0,2.3549,2.353,2.3523,2.3521,2.3512,2.3495,2.3495,2.3486,2.3477,2.3476,2.3459,2.3455,2.3451,2.3443,2.3441,2.3434,2.3427,2.3427,2.344,2.3442,2.3444,2.3446,2.3426,0,0,0,0,0,2.3553,2.3548,2.3532,2.3532,2.3527,2.3512,2.3508,2.3498,2.3487,2.3483,2.3471,2.346,2.3452,2.3446,2.3438,2.3435,2.3431,2.3435,2.3437,2.3438,2.3438,2.3434,2.3436,2.3421,2.3421,2.3421,0,0,2.3562,2.3551,2.3549,2.3536,2.3527,2.3521,2.3509,2.3504,2.3499,2.3482,2.3475,2.3466,2.3453,2.3448,2.3445,2.3441,2.3441,2.3439,2.344,2.344,2.3435,2.3437,2.3438,2.3422,2.3422,2.3422,0,0,2.3575,2.3567,2.3565,2.3557,2.3544,2.3533,2.3533,2.3517,2.351,2.3504,2.349,2.3484,2.347,2.346,2.3454,2.3461,2.3451,2.3459,2.3468,2.3464,2.3465,2.3466,2.3467,2.3468,2.3459,2.3459,2.3459,0,2.3587,2.3579,2.3566,2.3561,2.3555,2.3539,2.3537,2.3529,2.3514,2.3509,2.3504,2.3486,2.3476,2.3468,2.3469,2.3465,2.3462,2.3461,2.3466,2.3467,2.3468,2.3469,2.3469,2.346,2.346,2.346,2.346,0,2.3594,2.3589,2.3589,2.3575,2.3569,2.3565,2.355,2.3545,2.3536,2.3525,2.3517,2.3504,2.3492,2.349,2.3481,2.3479,2.3477,2.347,2.3461,2.347,2.3471,2.3471,2.3461,2.3461,2.3461,2.346,0,0,2.362,2.3598,2.3598,2.359,2.3574,2.3569,2.3564,2.3552,2.3548,2.3537,2.3532,2.352,2.3512,2.3504,2.3494,2.3491,2.3495,2.3483,2.3483,2.3485,2.3492,2.3497,2.3498,2.3489,2.3489,2.3489,2.3492,0,2.363,2.3621,2.3608,2.3603,2.3596,2.3581,2.3576,2.3565,2.3554,2.3547,2.3535,2.3526,2.3518,2.3512,2.3509,2.3496,2.3496,2.3495,2.3482,2.3482,2.3486,2.3498,2.3504,2.3509,2.3493,2.3493,2.3493,0,2.364,2.363,2.3625,2.3608,2.3604,2.3601,2.3588,2.3581,2.3568,2.356,2.3551,2.3539,2.3531,2.3524,2.3512,2.3512,2.3505,2.3498,2.3497,2.3495,2.3488,2.3496,2.351,2.351,2.3493,2.3493,2.3493,0,2.3657,2.3643,2.3638,2.3632,2.3612,2.361,2.3601,2.3587,2.358,2.3569,2.3564,2.3552,2.3545,2.3535,2.3519,2.3516,2.3508,2.35,2.3501,2.3501,2.35,2.35,2.3512,2.3497,2.3497,2.3497,2.3497,0,2.3669,2.3666,2.3645,2.3642,2.3637,2.3621,2.3617,2.3607,2.3594,2.3587,2.3573,2.3566,2.3547,2.3538,2.3525,2.3516,2.3514,2.3506,2.3503,2.3507,2.3508,2.3503,2.3502,2.3497,2.3497,2.3497,2.3497,0,2.3688,2.3674,2.3667,2.3649,2.3644,2.3641,2.3625,2.362,2.3609,2.36,2.3597,2.3578,2.3567,2.355,2.3534,2.3525,2.3518,2.3513,2.3523,2.352,2.3522,2.3521,2.353,2.353,2.3516,2.3516,2.3516,0,2.3696,2.3693,2.3675,2.3669,2.3661,2.3653,2.3646,2.363,2.3623,2.3606,2.3603,2.359,2.3579,2.3561,2.3545,2.3532,2.3526,2.353,2.3524,2.3528,2.3525,2.3525,2.3524,2.3531,2.3532,2.3532,2.3532,0,2.3711,2.3704,2.3695,2.3683,2.3676,2.3665,2.3654,2.3651,2.3632,2.3624,2.3613,2.3604,2.3587,2.3573,2.3558,2.3547,2.3536,2.3534,2.3533,2.3537,2.3543,2.3539,2.3526,2.3534,2.3534,2.3533,2.3533,2.3533,2.3724,2.372,2.3706,2.3696,2.3686,2.3676,2.367,2.3658,2.3648,2.3634,2.3624,2.3612,2.3597,2.3574,2.3564,2.3554,2.3549,2.3549,2.3548,2.3548,2.3549,2.3545,2.3551,2.3551,2.3551,2.3551,2.3551,0,2.3737,2.3727,2.3719,2.3704,2.3695,2.3686,2.3673,2.3667,2.3657,2.3644,2.3633,2.3618,2.3605,2.3588,2.3574,2.3568,2.3563,2.3565,2.3565,2.3562,2.3554,2.3556,2.357,2.357,2.357,2.357,2.357,2.357,2.3743,2.3736,2.3727,2.3714,2.3704,2.3693,2.3686,2.3676,2.3666,2.3651,2.364,2.3629,2.3614,2.3598,2.3585,2.358,2.3574,2.3578,2.3572,2.3565,2.3563,2.3561,2.3563,2.3577,2.3577,2.358,2.358,2.358]}]]